User: anonymous   Login
Location: Unspecified
(0.0000°N, 0.0000°E)
Time: 05:51:31
(UTC+00:00)
Language:

USA 158 - Orbit

View from above orbital plane
View from above orbital plane
View from above satellite
View from above satellite

Ground track
Ground track

The orbit data is extracted from the following two-line orbital elements,

1 26770U 01020A   18333.34129162 0.00000000  00000-0  00000-0 0    04
2 26770   7.0864  45.0362 0015596  45.6171 314.5227  0.98838837    07
Epoch (UTC): 29 November 2018 08:11:27
Eccentricity: 0.0015596
inclination: 7.0864°
perigee height: 36126 km
apogee height: 36259 km
right ascension of ascending node: 45.0362°
argument of perigee: 45.6171°
revolutions per day: 0.98838837
mean anomaly at epoch: 314.5227°
orbit number at epoch: 0

The dashed part of the orbit path shows where the satellite is in the earth's shadow,  

DLR